Early Bird

operational
NORAD ID: 1317 Int'l Des: 1965-028 Owner: INTEL Country: I-INT
HEOCIRCULARGSO

About Early Bird

Description loading...

Live Position

Loading 3D Globe...

Upcoming Passes

Altitude History

Altitude vs Time

uPlot chart will show altitude changes over time

Two-Line Element Set

1 1317U 65028A 25311.34021726 -.00000280 00000-0 00000+0 0 9990
2 1317 6.6157 65.9703 0008804 148.8154 255.1592 1.00221197124953
Epoch: Nov 7, 2025 • Age: 68 hours

Current Status

Altitude 35834.8 km
Velocity 3.07 km/s
Sub-Earth Point -0.83°S, 59.86°W
Type other

Large Constellations

Loading constellations...